Rush City, MN

12:10 AM CDT on October 23, 2017 (GMT -0500)
Rush City Regional

Weather History for KROS - January, 2013

Change the Weather History Date:

Wednesday, January 30, 2013

  Actual Average (KCBG) Record (KCBG)
Temperature  
Mean Temperature 16 °F -  
Max Temperature 23 °F 21 °F 48 °F (1989)
Min Temperature 8 °F 0 °F -35 °F (1950)
Degree Days  
Heating Degree Days 50    
Moisture  
Dew Point 9 °F    
Average Humidity 75    
Maximum Humidity 84    
Minimum Humidity 65    
Precipitation  
Precipitation 0.00 in - - ()
Sea Level Pressure  
Sea Level Pressure 29.67 in    
Wind  
Wind Speed 9 mph (NNW)    
Max Wind Speed 16 mph    
Max Gust Speed 22 mph    
Visibility 10 miles    
Events      
Averages and records for this station are not official NWS values.
T = Trace of Precipitation, MM = Missing Value Source: NWS Daily Summary

Daily Weather History Graph

Daily Weather History Graph

Search for Another Location

Airport or City:

Trip Planner

Search our weather history database for the weather conditions in past years. The results will help you decide how hot, cold, wet, or windy it might be!

Date:

Astronomy

Jan. 30, 2013 Rise Set
Actual Time 7:35 AM CST 5:15 PM CST
Civil Twilight 7:03 AM CST 5:47 PM CST
Nautical Twilight 6:27 AM CST 6:23 PM CST
Astronomical Twilight 5:52 AM CST 6:58 PM CST
Moon 9:30 PM CST (1/30) 8:49 AM CST (1/30)
Length of Visible Light 10h 43m
Length of Day
9h 40m
Waning Gibbous, 87% of the Moon is Illuminated
Jan 30
Waning Gibbous
Feb 3
Last Quarter
Feb 10
New
Feb 17
First Quarter
Feb 25
Full

Hourly Weather History & Observations

Time (CST) Temp. Windchill Dew Point Humidity Pressure Visibility Wind Dir Wind Speed Gust Speed Precip Events Conditions
12:15 AM 23.9 °F 16.8 °F 17.8 °F 77% 29.74 in 10.0 mi NNW 5.8 mph - N/A   Scattered Clouds
12:35 AM 23.2 °F 12.0 °F 18.0 °F 80% 29.72 in 10.0 mi North 11.5 mph 16.1 mph N/A   Clear
12:55 AM 22.6 °F 11.9 °F 17.6 °F 81% 29.72 in 10.0 mi North 10.4 mph 18.4 mph N/A   Clear
1:15 AM 22.1 °F 10.6 °F 17.1 °F 81% 29.68 in 10.0 mi North 11.5 mph 17.3 mph N/A   Clear
1:34 AM 21.2 °F 11.7 °F 16.5 °F 82% 29.69 in 10.0 mi North 8.1 mph - N/A   Clear
1:55 AM 20.7 °F 13.0 °F 16.2 °F 83% 29.69 in 10.0 mi NNW 5.8 mph - N/A   Clear
2:15 AM 20.3 °F 12.5 °F 15.8 °F 83% 29.69 in 10.0 mi NNW 5.8 mph - N/A   Scattered Clouds
2:34 AM 20.1 °F 13.6 °F 15.8 °F 83% 29.69 in 10.0 mi NNW 4.6 mph - N/A   Scattered Clouds
2:55 AM 20.3 °F 12.5 °F 16.2 °F 84% 29.68 in 10.0 mi NNW 5.8 mph - N/A   Mostly Cloudy
3:15 AM 20.7 °F 14.2 °F 16.5 °F 84% 29.68 in 10.0 mi NW 4.6 mph - N/A   Overcast
3:35 AM 21.0 °F 14.6 °F 16.7 °F 83% 29.68 in 10.0 mi NW 4.6 mph - N/A   Overcast
3:55 AM 21.9 °F 13.4 °F 17.4 °F 83% 29.67 in 10.0 mi NNW 6.9 mph - N/A   Overcast
4:15 AM 22.1 °F 12.8 °F 17.2 °F 82% 29.68 in 10.0 mi NNW 8.1 mph - N/A   Overcast
4:35 AM 22.1 °F 12.8 °F 17.1 °F 81% 29.68 in 10.0 mi NW 8.1 mph - N/A   Overcast
4:55 AM 21.7 °F 11.5 °F 16.3 °F 80% 29.68 in 10.0 mi NNW 9.2 mph 17.3 mph N/A   Overcast
5:15 AM 21.2 °F 10.1 °F 15.8 °F 80% 29.66 in 10.0 mi NNW 10.4 mph 17.3 mph N/A   Overcast
5:35 AM 20.8 °F 7.9 °F 15.1 °F 78% 29.65 in 10.0 mi North 13.8 mph - N/A   Overcast
5:55 AM 20.1 °F 7.5 °F 14.4 °F 78% 29.66 in 10.0 mi North 12.7 mph - N/A   Overcast
6:14 AM 19.8 °F 9.1 °F 14.4 °F 80% 29.67 in 10.0 mi NNW 9.2 mph - N/A   Overcast
6:35 AM 19.2 °F 9.3 °F 13.8 °F 80% 29.67 in 10.0 mi NNW 8.1 mph 16.1 mph N/A   Overcast
6:55 AM 18.5 °F 7.5 °F 13.1 °F 79% 29.67 in 10.0 mi NNW 9.2 mph - N/A   Overcast
7:14 AM 18.0 °F 6.9 °F 12.4 °F 79% 29.66 in 10.0 mi NNW 9.2 mph - N/A   Overcast
7:35 AM 17.4 °F 4.7 °F 11.3 °F 77% 29.65 in 10.0 mi NNW 11.5 mph 17.3 mph N/A   Overcast
7:55 AM 16.7 °F 5.3 °F 10.9 °F 78% 29.65 in 10.0 mi NNW 9.2 mph 18.4 mph N/A   Overcast
8:14 AM 16.3 °F 4.9 °F 10.4 °F 77% 29.65 in 10.0 mi NNW 9.2 mph - N/A   Overcast
8:35 AM 15.6 °F 1.8 °F 9.5 °F 77% 29.66 in 10.0 mi NNW 12.7 mph 17.3 mph N/A   Overcast
8:55 AM 15.3 °F 2.0 °F 9.3 °F 77% 29.66 in 10.0 mi NNW 11.5 mph 17.3 mph N/A   Overcast
9:14 AM 14.9 °F 0.3 °F 8.6 °F 76% 29.67 in 10.0 mi NNW 13.8 mph 18.4 mph N/A   Overcast
9:35 AM 14.9 °F 2.3 °F 8.2 °F 75% 29.66 in 10.0 mi NNW 10.4 mph 16.1 mph N/A   Overcast
9:55 AM 14.4 °F -0.4 °F 7.7 °F 75% 29.66 in 10.0 mi NNW 13.8 mph 17.3 mph N/A   Overcast
10:14 AM 14.5 °F 3.6 °F 7.7 °F 74% 29.67 in 10.0 mi NNW 8.1 mph - N/A   Overcast
10:35 AM 14.5 °F 3.6 °F 7.5 °F 74% 29.67 in 10.0 mi NNW 8.1 mph 18.4 mph N/A   Overcast
10:54 AM 14.4 °F 1.6 °F 7.5 °F 74% 29.67 in 10.0 mi NNW 10.4 mph 16.1 mph N/A   Overcast
11:15 AM 14.4 °F 2.4 °F 7.2 °F 73% 29.66 in 10.0 mi NW 9.2 mph 16.1 mph N/A   Overcast
11:35 AM 14.0 °F 2.0 °F 7.0 °F 74% 29.65 in 10.0 mi NNW 9.2 mph 19.6 mph N/A   Overcast
11:54 AM 14.5 °F 1.1 °F 7.5 °F 74% 29.65 in 10.0 mi NNW 11.5 mph 16.1 mph N/A   Overcast
12:15 PM 14.5 °F 1.1 °F 6.8 °F 71% 29.65 in 10.0 mi NNW 11.5 mph 20.7 mph N/A   Overcast
12:35 PM 14.5 °F 1.1 °F 6.6 °F 71% 29.65 in 10.0 mi NNW 11.5 mph 21.9 mph N/A   Overcast
12:54 PM 14.5 °F 1.1 °F 6.8 °F 71% 29.64 in 10.0 mi NNW 11.5 mph 19.6 mph N/A   Overcast
1:15 PM 14.5 °F 0.5 °F 6.8 °F 71% 29.64 in 10.0 mi NNW 12.7 mph 18.4 mph N/A   Overcast
1:35 PM 14.0 °F -1.4 °F 5.2 °F 68% 29.64 in 10.0 mi NNW 15.0 mph 19.6 mph N/A   Overcast
1:54 PM 14.0 °F 0.5 °F 5.2 °F 68% 29.64 in 10.0 mi NNW 11.5 mph 20.7 mph N/A   Overcast
2:15 PM 14.0 °F -0.2 °F 4.8 °F 67% 29.63 in 10.0 mi NNW 12.7 mph 19.6 mph N/A   Overcast
2:35 PM 14.0 °F 0.5 °F 4.6 °F 66% 29.64 in 10.0 mi NNW 11.5 mph 17.3 mph N/A   Overcast
2:55 PM 14.0 °F -2.0 °F 4.1 °F 65% 29.64 in 10.0 mi NNW 16.1 mph 21.9 mph N/A   Overcast
3:15 PM 14.2 °F 0.7 °F 4.6 °F 66% 29.64 in 10.0 mi NNW 11.5 mph 19.6 mph N/A   Overcast
3:35 PM 14.0 °F 1.2 °F 5.9 °F 70% 29.64 in 10.0 mi NNW 10.4 mph - N/A   Overcast
3:55 PM 13.6 °F -0.7 °F 4.1 °F 66% 29.65 in 10.0 mi NW 12.7 mph 19.6 mph N/A   Overcast
4:15 PM 13.6 °F 0.7 °F 4.6 °F 67% 29.65 in 10.0 mi NNW 10.4 mph 18.4 mph N/A   Overcast
4:34 PM 13.6 °F 1.6 °F 5.2 °F 69% 29.65 in 10.0 mi NW 9.2 mph 16.1 mph N/A   Overcast
4:55 PM 13.5 °F -1.5 °F 5.0 °F 69% 29.66 in 10.0 mi NW 13.8 mph 18.4 mph N/A   Overcast
5:14 PM 13.6 °F 0.7 °F 4.6 °F 67% 29.66 in 10.0 mi NNW 10.4 mph 20.7 mph N/A   Overcast
5:35 PM 13.6 °F -0.7 °F 5.0 °F 68% 29.66 in 10.0 mi NW 12.7 mph 16.1 mph N/A   Overcast
5:55 PM 13.6 °F 1.6 °F 5.4 °F 70% 29.66 in 10.0 mi NNW 9.2 mph - N/A   Overcast
6:15 PM 13.6 °F 0.7 °F 5.7 °F 71% 29.66 in 10.0 mi WNW 10.4 mph 17.3 mph N/A   Overcast
6:34 PM 12.9 °F -0.2 °F 5.9 °F 74% 29.66 in 10.0 mi WNW 10.4 mph 17.3 mph N/A   Overcast
6:55 PM 12.7 °F -1.1 °F 6.1 °F 75% 29.67 in 10.0 mi NW 11.5 mph 16.1 mph N/A   Overcast
7:15 PM 12.2 °F -1.8 °F 5.9 °F 76% 29.67 in 10.0 mi WNW 11.5 mph - N/A   Overcast
7:34 PM 12.0 °F -1.3 °F 5.0 °F 73% 29.67 in 10.0 mi WNW 10.4 mph 17.3 mph N/A   Overcast
7:55 PM 11.3 °F -4.3 °F 4.1 °F 73% 29.67 in 10.0 mi NW 13.8 mph 20.7 mph N/A   Overcast
8:15 PM 10.8 °F -5.0 °F 3.0 °F 71% 29.68 in 10.0 mi NW 13.8 mph 21.9 mph N/A   Overcast
8:34 PM 10.4 °F -2.4 °F 2.3 °F 70% 29.68 in 10.0 mi NW 9.2 mph - N/A   Overcast
8:55 PM 10.0 °F -3.7 °F 1.9 °F 70% 29.68 in 10.0 mi NW 10.4 mph 16.1 mph N/A   Overcast
9:15 PM 10.0 °F -0.9 °F 1.9 °F 70% 29.68 in 10.0 mi NW 6.9 mph - N/A   Overcast
9:35 PM 10.2 °F -3.5 °F 2.3 °F 70% 29.69 in 10.0 mi NW 10.4 mph 17.3 mph N/A   Overcast
9:55 PM 10.2 °F -2.7 °F 2.3 °F 70% 29.69 in 10.0 mi NW 9.2 mph - N/A   Overcast
10:14 PM 9.9 °F -4.0 °F 2.8 °F 73% 29.69 in 10.0 mi WNW 10.4 mph 18.4 mph N/A   Overcast
10:35 PM 9.5 °F -2.6 °F 3.0 °F 75% 29.69 in 10.0 mi NW 8.1 mph - N/A   Overcast
10:55 PM 9.3 °F -5.4 °F 2.7 °F 74% 29.69 in 10.0 mi WNW 11.5 mph - N/A   Overcast
11:14 PM 9.1 °F -5.6 °F 2.3 °F 74% 29.69 in 10.0 mi WNW 11.5 mph - N/A   Overcast
11:35 PM 8.8 °F -4.4 °F 2.1 °F 74% 29.70 in 10.0 mi WNW 9.2 mph 16.1 mph N/A   Overcast
11:55 PM 8.6 °F -2.6 °F 1.8 °F 74% 29.71 in 10.0 mi NW 6.9 mph - N/A   Overcast